Regional Weather Roundup
Issued by NWS

Home | Current Version | Previous Version | Graphics & Text | Print | Product List | Glossary On
Versions: 1 2 3 4 5 6 7 8 9 10 11 12 13 14 15 16 17 18 19 20 21 22 23 24 25 26 27 28 29 30 31 32 33 34 35 36 37 38 39 40 41 42 43 44 45 46 47 48 49 50
000
ASUS43 KFSD 221102
RWRSD

WEATHER ROUNDUP FOR SOUTH DAKOTA
NATIONAL WEATHER SERVICE SIOUX FALLS SD
600 AM CDT TUE AUG 22 2017

NOTE: "FAIR" INDICATES FEW OR NO CLOUDS BELOW 12,000 FEET WITH NO
SIGNIFICANT WEATHER AND/OR OBSTRUCTIONS TO VISIBILITY.


SDZ001>005-009-010-012>017-221200-
NORTHWEST AND NORTH CENTRAL SOUTH DAKOTA

CITY           SKY/WX    TMP DP  RH WIND       PRES   REMARKS
BUFFALO          N/A     55  39  54 W3        30.16R
FAITH            N/A     54  45  71 W3        30.20S
MOBRIDGE       CLEAR     49  46  90 NW3       30.15
$$

SDZ012>016-024>037-041>051-057-063-072>074-221200-
SOUTHWEST AND SOUTH CENTRAL SOUTH DAKOTA

CITY           SKY/WX    TMP DP  RH WIND       PRES   REMARKS
RAPID CTY ARPT CLEAR     48  41  76 NW6       30.22S
PIERRE         CLEAR     53  47  79 W5        30.17R
CUSTER         CLEAR     44  34  67 NW5       30.31S
ELLSWORTH AFB  CLEAR     52  41  64 CALM      30.21S
PHILIP         CLEAR     47  43  86 W8        30.21R
SPEARFISH      FAIR      50  39  66 S8        30.24S
WINNER         FAIR      53  50  89 SW6       30.19R
$$

SDZ004>011-016>023-039-040-221200-
NORTHEAST SOUTH DAKOTA

CITY           SKY/WX    TMP DP  RH WIND       PRES   REMARKS
ABERDEEN       CLEAR     44  42  93 SW5       30.11R
WATERTOWN      CLEAR     52  50  93 W8        30.09R
BROOKINGS      CLEAR     51  49  92 CALM      30.11R
SISSETON         N/A     50  47  89 NW3       30.06R
$$

SDZ017-020-022-023-036>040-048>070-221200-
SOUTHEAST SOUTH DAKOTA

CITY           SKY/WX    TMP DP  RH WIND       PRES   REMARKS
SIOUX FALLS    CLEAR     54  53  97 NW5       30.10R
HURON          CLEAR     46  45  96 W5        30.13R
CHAMBERLAIN    CLEAR     52  50  92 W6        30.17R
MITCHELL       CLEAR     50  48  93 NW5       30.14R
YANKTON        CLEAR     55  53  93 NW9       30.13R
$$

ABBREVIATIONS USED IN REMARKS
   TC - TEMPERATURE IN CELSIUS
  WCI - WIND CHILL INDEX
   HX - HEAT INDEX
  VSB - VISIBILITY




USA.gov is the U.S. government's official web portal to all federal, state and local government web resources and services.